FW3092 Weather Reports


Display with metric or nautical units.
time (UTC)temp
F
wind
direction
speed
MPH
gust
MPH
rain 1hr
in
rain 24hr
in
rain mn
in
humidity
%
barometer
mb
20260903204502 77 5 3.0 6.0 0.00 0.92 0.13 82 957.5
20260903203001 77 280 1.0 5.0 0.00 0.92 0.13 82 957.7
20260903201600 77 275 1.0 6.0 0.00 0.92 0.13 82 957.6
20260903200100 78 282 1.0 3.0 0.00 0.92 0.13 81 957.5
20260903194559 78 306 1.0 4.0 0.00 0.92 0.13 80 957.4
20260903193058 79 275 2.0 4.0 0.00 0.92 0.13 80 957.5
20260903191557 79 305 2.0 9.0 0.00 0.92 0.13 80 957.7
20260903190055 78 275 2.0 8.0 0.00 0.92 0.13 79 957.9
20260903184601 78 300 3.0 7.0 0.00 0.92 0.13 80 957.9
20260903183053 77 285 3.0 10.0 0.00 0.92 0.13 80 958.1
20260903181555 77 311 8.0 11.0 0.00 0.92 0.13 80 958.1
20260903180058 78 243 7.0 12.0 0.00 0.92 0.13 79 958.2
20260903174548 78 249 6.0 12.0 0.00 0.92 0.13 83 958.2
20260903173046 77 238 5.0 10.0 0.00 0.92 0.13 82 958.3
20260903171546 76 254 5.0 9.0 0.00 0.92 0.13 83 958.4
20260903170048 75 244 4.0 8.0 0.00 0.92 0.13 83 958.6
20260903164541 75 285 1.0 10.0 0.00 0.92 0.13 83 958.5
20260903163044 75 267 7.0 11.0 0.00 0.92 0.13 85 958.6
20260903161533 74 298 6.0 13.0 0.00 0.92 0.13 85 958.8
20260903160035 73 249 6.0 10.0 0.00 0.92 0.13 87 958.8
20260903154526 71 236 7.0 11.0 0.00 1.05 0.13 88 959.1
20260903153024 70 251 6.0 10.0 0.00 1.05 0.13 88 959.4
20260903151523 70 211 6.0 10.0 0.00 1.05 0.13 89 959.4
20260903150023 70 254 5.0 10.0 0.00 1.05 0.13 89 959.2
20260903144522 70 255 5.0 10.0 0.00 1.31 0.13 90 959.1
20260903143021 70 257 6.0 10.0 0.00 1.31 0.13 92 959.1
20260903141517 69 251 7.0 12.0 0.00 1.31 0.13 92 958.9
20260903140016 68 246 7.0 11.0 0.00 1.31 0.13 92 959.0
20260903134512 68 280 7.0 12.0 0.00 1.32 0.13 92 959.0
20260903133013 67 259 6.0 11.0 0.00 1.32 0.13 92 958.9
20260903131509 67 262 8.0 12.0 0.00 1.32 0.13 92 959.0
20260903130006 67 226 7.0 11.0 0.00 1.32 0.13 92 959.1
20260903124503 66 234 5.0 13.0 0.00 1.32 0.13 92 959.2
20260903123108 66 257 6.0 9.0 0.00 1.32 0.13 92 959.1
20260903121558 66 236 3.0 6.0 0.00 1.32 0.13 92 958.9
20260903120122 66 221 3.0 7.0 0.00 1.32 0.13 92 958.8
20260903114603 65 241 2.0 5.0 0.00 1.32 0.13 92 958.7
20260903113051 64 217 1.0 4.0 0.00 1.32 0.13 92 958.7
20260903111549 64 229 2.0 4.0 0.00 1.32 0.13 92 958.6
20260903110059 65 217 3.0 8.0 0.00 1.32 0.13 92 958.3
20260903104547 64 240 3.0 9.0 0.00 1.32 0.13 92 958.3
20260903103046 64 240 5.0 10.0 0.00 1.32 0.13 92 958.4
20260903101548 64 206 4.0 10.0 0.00 1.32 0.13 92 958.5
20260903100143 64 230 5.0 9.0 0.00 1.32 0.13 92 958.6
20260903094544 63 212 4.0 8.0 0.00 1.32 0.13 92 958.6
20260903093043 63 232 3.0 8.0 0.00 1.32 0.13 92 958.4
20260903091541 63 220 3.0 6.0 0.01 1.32 0.13 92 958.8
20260903090045 63 217 3.0 5.0 0.02 1.32 0.13 92 958.7
20260903084541 63 229 2.0 7.0 0.02 1.32 0.13 92 958.4
20260903083045 63 212 3.0 6.0 0.02 1.32 0.13 92 958.4
20260903081540 63 217 2.0 5.0 0.01 1.31 0.12 92 958.7
20260903080037 63 213 2.0 4.0 0.00 1.30 0.11 92 958.6
20260903074537 63 222 1.0 4.0 0.00 1.30 0.11 92 958.8
20260903073046 64 225 2.0 8.0 0.00 1.30 0.11 92 958.7
20260903071535 64 227 5.0 10.0 0.00 1.30 0.11 92 958.7
20260903070034 64 221 4.0 10.0 0.00 1.30 0.11 92 958.6
20260903064534 64 208 4.0 8.0 0.00 1.30 0.11 92 958.9
20260903063031 64 231 3.0 9.0 0.00 1.30 0.11 92 958.7
20260903061546 64 231 5.0 10.0 0.00 1.30 0.11 92 958.8
20260903060029 64 219 5.0 10.0 0.00 1.30 0.11 92 959.1
20260903054528 64 200 4.0 8.0 0.00 1.30 0.11 92 959.1
20260903053027 64 186 3.0 10.0 0.02 1.30 0.11 92 959.0
20260903051526 64 232 4.0 10.0 0.08 1.30 0.11 92 959.3
20260903050028 64 213 6.0 10.0 0.11 1.30 0.11 92 959.3
20260903044523 64 229 6.0 12.0 0.22 1.30 0.11 91 958.9
20260903043021 65 211 9.0 16.0 0.21 1.28 0.09 92 959.2
20260903041528 65 240 8.0 13.0 0.16 1.22 0.03 91 960.2
20260903040012 66 220 10.0 20.0 0.15 1.19 0.00 91 960.5
20260903034512 66 246 5.0 9.0 0.06 1.08 1.08 91 960.5
20260903033015 66 194 5.0 10.0 0.07 1.07 1.07 91 958.9
20260903031518 65 228 4.0 11.0 0.09 1.05 1.05 92 959.6
20260903030009 65 200 5.0 16.0 0.12 1.04 1.04 91 959.7
20260903024507 64 250 9.0 17.0 0.36 1.02 1.02 91 960.8
20260903023006 64 242 10.0 15.0 0.57 0.99 0.99 91 960.9
20260903021505 64 197 5.0 13.0 0.55 0.96 0.96 91 960.4
20260903020015 63 227 5.0 15.0 0.51 0.91 0.91 90 961.3
20260903014625 66 253 13.0 28.0 0.26 0.66 0.66 91 963.7
20260903013104 67 174 3.0 10.0 0.01 0.41 0.41 91 960.2
20260903010109 67 151 3.0 10.0 0.00 0.40 0.40 91 960.4
20260903004559 67 189 1.0 6.0 0.00 0.40 0.40 91 959.7
20260903003108 67 196 2.0 10.0 0.00 0.40 0.40 91 960.0
20260903001601 67 179 1.0 11.0 0.00 0.40 0.40 91 960.1
20260903000053 67 126 3.0 16.0 0.00 0.40 0.40 91 960.0
20260902234554 67 225 4.0 12.0 0.00 0.40 0.40 91 959.8
20260902233052 68 219 2.0 10.0 0.00 0.40 0.40 91 959.8
20260902231552 68 143 1.0 6.0 0.00 0.40 0.40 91 960.3
20260902230058 68 184 1.0 7.0 0.00 0.40 0.40 91 959.9
20260902224555 68 126 1.0 5.0 0.00 0.40 0.40 91 959.8
20260902223049 68 111 2.0 9.0 0.00 0.40 0.40 91 959.7
20260902221547 68 107 3.0 8.0 0.00 0.40 0.40 91 960.0
20260902220049 68 138 1.0 7.0 0.00 0.40 0.40 91 960.4
20260902214549 68 98 0.0 5.0 0.00 0.40 0.40 91 960.5
20260902213045 69 173 1.0 6.0 0.00 0.40 0.40 91 960.5
20260902211646 69 143 3.0 8.0 0.00 0.40 0.40 91 960.7
20260902210044 69 200 5.0 12.0 0.00 0.40 0.40 91 960.8